Champaign, IL

3:11 PM CDT on October 13, 2019 (GMT -0500)
Univ Of Illinois-Willard

Weather History for KCMI - May, 2019

Change the Weather History Date:

Monday, May 13, 2019

  Actual Average Record
Temperature  
Mean Temperature 54 °F 62 °F  
Max Temperature 66 °F 74 °F 88 °F (2005)
Min Temperature 42 °F 50 °F 36 °F (2013)
Degree Days  
Heating Degree Days 11 5  
Month to date heating degree days 105 83  
Since 1 July heating degree days 5868 5747  
Cooling Degree Days 0 2  
Month to date cooling degree days 4 18  
Year to date cooling degree days 7 29  
Growing Degree Days 4 (Base 50)    
Moisture  
Dew Point 43 °F    
Average Humidity 70    
Maximum Humidity 100    
Minimum Humidity 40    
Precipitation  
Precipitation 0.00 in 0.14 in 0.85 in (1999)
Month to date precipitation 2.10 2.01  
Year to date precipitation 14.24 12.62  
Sea Level Pressure  
Sea Level Pressure 29.94 in    
Wind  
Wind Speed 7 mph (NW)    
Max Wind Speed 16 mph    
Max Gust Speed 24 mph    
Visibility 9 miles    
Events      
T = Trace of Precipitation, MM = Missing Value Source: NWS Daily Summary

Daily Weather History Graph

Daily Weather History Graph

Search for Another Location

Airport or City:

Astronomy

May. 13, 2019 Rise Set
Actual Time 5:39 AM CDT 7:59 PM CDT
Civil Twilight 5:09 AM CDT 8:30 PM CDT
Nautical Twilight 4:31 AM CDT 9:07 PM CDT
Astronomical Twilight 3:50 AM CDT 9:49 PM CDT
Moon 2:11 PM CDT 2:58 AM CDT
Length of Visible Light 15h 20m
Length of Day
14h 19m
Waxing Gibbous, 69% of the Moon is Illuminated
May 13
Waxing Gibbous
May 18
Full
May 26
Last Quarter
Jun 3
New
Jun 10
First Quarter

Hourly Weather History & Observations

Time (CDT) Temp. Windchill Dew Point Humidity Pressure Visibility Wind Dir Wind Speed Gust Speed Precip Events Conditions
12:53 AM 45.0 °F 41.8 °F 44.1 °F 97% 29.87 in 10.0 mi NW 5.8 mph - N/A   Overcast
1:53 AM 45.0 °F 42.6 °F 44.1 °F 97% 29.86 in 8.0 mi NW 4.6 mph - N/A   Overcast
2:53 AM 44.1 °F 40.8 °F 44.1 °F 100% 29.87 in 7.0 mi WNW 5.8 mph - N/A   Overcast
3:53 AM 43.0 °F 39.5 °F 42.1 °F 97% 29.87 in 5.0 mi WNW 5.8 mph - N/A   Mostly Cloudy
4:53 AM 44.1 °F 39.5 °F 44.1 °F 100% 29.89 in 4.0 mi WNW 8.1 mph - N/A   Mostly Cloudy
5:21 AM 44.1 °F 39.0 °F 43.0 °F 96% 29.89 in 4.0 mi WNW 9.2 mph - N/A   Overcast
5:53 AM 44.1 °F 39.0 °F 43.0 °F 96% 29.91 in 9.0 mi WNW 9.2 mph - N/A   Overcast
6:53 AM 45.0 °F 40.6 °F 43.0 °F 93% 29.94 in 10.0 mi WNW 8.1 mph - N/A   Overcast
7:53 AM 46.9 °F - 43.0 °F 86% 29.94 in 10.0 mi WNW 8.1 mph - N/A   Mostly Cloudy
8:53 AM 50.0 °F - 44.1 °F 80% 29.96 in 10.0 mi WNW 10.4 mph - N/A   Overcast
9:53 AM 54.0 °F - 46.0 °F 75% 29.96 in 10.0 mi NW 12.7 mph - N/A   Scattered Clouds
10:53 AM 57.0 °F - 46.0 °F 67% 29.96 in 10.0 mi NNW 8.1 mph 20.7 mph N/A   Scattered Clouds
11:53 AM 60.1 °F - 46.0 °F 60% 29.96 in 10.0 mi NNW 8.1 mph - N/A   Mostly Cloudy
12:53 PM 61.0 °F - 44.1 °F 54% 29.95 in 10.0 mi NNW 6.9 mph - N/A   Scattered Clouds
1:53 PM 62.1 °F - 44.1 °F 52% 29.95 in 10.0 mi North 9.2 mph - N/A   Mostly Cloudy
2:53 PM 62.1 °F - 39.9 °F 44% 29.95 in 10.0 mi NW 10.4 mph 18.4 mph N/A   Scattered Clouds
3:53 PM 64.0 °F - 41.0 °F 43% 29.95 in 10.0 mi NW 10.4 mph - N/A   Scattered Clouds
4:53 PM 62.1 °F - 41.0 °F 46% 29.96 in 10.0 mi North 9.2 mph - N/A   Scattered Clouds
5:53 PM 64.0 °F - 39.9 °F 41% 29.95 in 10.0 mi NW 10.4 mph - N/A   Partly Cloudy
6:53 PM 62.1 °F - 39.9 °F 44% 29.96 in 10.0 mi NNW 8.1 mph - N/A   Clear
7:53 PM 54.0 °F - 43.0 °F 66% 29.97 in 10.0 mi NNW 6.9 mph - N/A   Clear
8:53 PM 52.0 °F - 42.1 °F 69% 29.99 in 10.0 mi Calm Calm - N/A   Clear
9:53 PM 50.0 °F - 43.0 °F 77% 30.00 in 10.0 mi Calm Calm - N/A   Clear
10:53 PM 51.1 °F - 43.0 °F 74% 30.01 in 10.0 mi Calm Calm - N/A   Clear
11:53 PM 48.0 °F - 43.0 °F 83% 30.01 in 10.0 mi Calm Calm - N/A   Clear